Regional Weather Roundup
Issued by NWS Little Rock, AR

Home | Current Version | Previous Version | Graphics & Text | Print | Product List | Glossary On
Versions: 1 2 3 4 5 6 7 8 9 10 11 12 13 14 15 16 17 18 19 20 21 22 23 24 25 26 27 28 29 30 31 32 33
000
ASUS44 KLZK 210005
RWRLZK

WEATHER ROUNDUP FOR ARKANSAS
NATIONAL WEATHER SERVICE LITTLE ROCK AR
600 PM CST TUE FEB 20 2018

NOTE: "FAIR" INDICATES FEW OR NO CLOUDS BELOW 12,000 FEET WITH NO
SIGNIFICANT WEATHER AND/OR OBSTRUCTIONS TO VISIBILITY.

ARZ001-003-010-029-210100-
NORTHWEST ARKANSAS

CITY           SKY/WX    TMP DP  RH WIND       PRES   REMARKS
FAYETTEVILLE   RAIN      37  37 100 N3        30.09R FOG
6HR MIN TEMP:  37; 6HR MAX TEMP:  68; 6HR PCP:  1.31;

FORT SMITH     HVY RAIN  45  44  97 SW6       30.05R FOG
6HR MIN TEMP:  45; 6HR MAX TEMP:  74; 6HR PCP:  0.93;

HARRISON       HVY RAIN  49  48  97 NW15G22   30.01R FOG
6HR MIN TEMP:  49; 6HR MAX TEMP:  70;

BENTONVILLE    LGT SNOW  35  33  92 NE10      30.08R FOG     WCI  27
6HR MIN TEMP:  35; 6HR MAX TEMP:  64; 6HR PCP:  1.49;

ROGERS         LGT SNOW  35  34  96 N9        30.07R FOG     WCI  28
6HR MIN TEMP:  35; 6HR MAX TEMP:  64; 6HR PCP:  1.51;

HIGHFILL       LGT RAIN  36  35  96 NE15      30.06R
6HR MIN TEMP:  36; 6HR MAX TEMP:  64; 6HR PCP:  1.46;

SPRINGDALE     LGT RAIN  37  37 100 NW12G17   30.09R FOG
$$

ARZ004-005-016-210100-
NORTH CENTRAL ARKANSAS

CITY           SKY/WX    TMP DP  RH WIND       PRES   REMARKS
BATESVILLE     MOCLDY    74  64  71 S10G18    29.98R
6HR MIN TEMP:  74; 6HR MAX TEMP:  78;

FLIPPIN        HVY RAIN  68  59  73 NW12      29.98R
6HR MIN TEMP:  68; 6HR MAX TEMP:  73; 6HR PCP:  0.05;

MTN HOME       LGT RAIN  63  59  87 N9G18     29.96R
6HR MIN TEMP:  63; 6HR MAX TEMP:  72; 6HR PCP: TRACE;

$$

ARZ040-041-210100-
WEST CENTRAL ARKANSAS

CITY           SKY/WX    TMP DP  RH WIND       PRES   REMARKS
MENA           CLOUDY    68  68 100 NW18      29.95R THUNDER
MOUNT IDA      CLOUDY    71  64  78 SE7       29.90F
6HR MIN TEMP:  69; 6HR MAX TEMP:  75; 6HR PCP: TRACE;

$$

ARZ009-017-025-026-028-210100-
NORTHEAST ARKANSAS

CITY           SKY/WX    TMP DP  RH WIND       PRES   REMARKS
JONESBORO      MOCLDY    72  67  84 S12       30.01S
6HR MIN TEMP:  72; 6HR MAX TEMP:  76;

NEWPORT          N/A     72  65  78 S20G26    29.98F
6HR MIN TEMP:  71; 6HR MAX TEMP:  77;

WALNUT RIDGE   FAIR      72  65  78 S17       29.99S
6HR MIN TEMP:  71; 6HR MAX TEMP:  76;

BLYTHEVILLE    FAIR      72  64  76 S12       30.05R
6HR MIN TEMP:  72; 6HR MAX TEMP:  78; 6HR PCP: TRACE;

$$

ARZ022-023-033-042-044-210100-
CENTRAL ARKANSAS

CITY           SKY/WX    TMP DP  RH WIND       PRES   REMARKS
LITTLE ROCK    CLOUDY    75  61  61 S9        29.96S
6HR MIN TEMP:  75; 6HR MAX TEMP:  81;

JACKSONVILLE   MOCLDY    75  63  65 SE7       29.96S
6HR MIN TEMP:  75; 6HR MAX TEMP:  80;

SEARCY         FAIR      73  69  87 S10       29.98R
6HR MIN TEMP:  73; 6HR MAX TEMP:  79;

HOT SPRINGS    CLOUDY    71  63  75 E5        29.94F
6HR MIN TEMP:  70; 6HR MAX TEMP:  77; 6HR PCP:  0.01;

RUSSELLVILLE   CLOUDY    67  64  90 E3        29.93S
6HR MIN TEMP:  66; 6HR MAX TEMP:  73; 6HR PCP: TRACE;

CLINTON        CLOUDY    66  64  94 CALM      29.96R FOG
$$

ARZ036-210100-
EAST ARKANSAS

CITY           SKY/WX    TMP DP  RH WIND       PRES   REMARKS
WEST MEMPHIS   FAIR      73  65  75 SE10      30.04R
6HR MIN TEMP:  73; 6HR MAX TEMP:  78;

$$

ARZ050-053-066-070-073-210100-
SOUTHWEST ARKANSAS

CITY           SKY/WX    TMP DP  RH WIND       PRES   REMARKS
ARKADELPHIA    MOCLDY    74  63  68 S7        29.94F
6HR MIN TEMP:  74; 6HR MAX TEMP:  79; 6HR PCP: TRACE;

CAMDEN         MOCLDY    79  59  50 SE8       29.96S
TEXARKANA      CLOUDY    75  64  68 S13       29.93S
6HR MIN TEMP:  74; 6HR MAX TEMP:  76; 6HR PCP: TRACE;

EL DORADO      CLOUDY    77  66  68 S16G23    29.99R
DE QUEEN       HVY RAIN  63  63 100 SW9       29.95R FOG
6HR MIN TEMP:  63; 6HR MAX TEMP:  75; 6HR PCP:  0.47;

$$

ARZ056-057-069-210100-
SOUTHEAST ARKANSAS

CITY           SKY/WX    TMP DP  RH WIND       PRES   REMARKS
PINE BLUFF     FAIR      76  61  59 S12       29.99R
6HR MIN TEMP:  75; 6HR MAX TEMP:  81;

STUTTGART      MOCLDY    75  64  68 S13       30.00S
6HR MIN TEMP:  75; 6HR MAX TEMP:  79;

MONTICELLO     MOCLDY    77  63  61 SE6       30.01R
6HR MIN TEMP:  75; 6HR MAX TEMP:  82;


$$






USA.gov is the U.S. government's official web portal to all federal, state and local government web resources and services.